Gillette, WY

1:26 AM MST on February 24, 2017 (GMT -0700)
Gillette-Campbell County

Weather History for KGCC - March, 2014

Change the Weather History Date:

Monday, March 3, 2014

  Actual Average Record
Temperature  
Mean Temperature 27 °F 31 °F  
Max Temperature 47 °F 43 °F 82 °F (2006)
Min Temperature 7 °F 20 °F -23 °F (1960)
Degree Days  
Heating Degree Days 38 34  
Month to date heating degree days 179 102  
Since 1 July heating degree days 5824 5510  
Cooling Degree Days 0 0  
Month to date cooling degree days 0 0  
Year to date cooling degree days 0 0  
Moisture  
Dew Point 22 °F    
Average Humidity 69    
Maximum Humidity 84    
Minimum Humidity 53    
Precipitation  
Precipitation 0.00 in 0.02 in 0.30 in (1946)
Month to date precipitation 0.15 0.06  
Year to date precipitation 1.43 0.84  
Sea Level Pressure  
Sea Level Pressure 29.94 in    
Wind  
Wind Speed 7 mph (South)    
Max Wind Speed 21 mph    
Max Gust Speed 26 mph    
Visibility 10 miles    
Events      
T = Trace of Precipitation, MM = Missing Value Source: NWS Daily Summary

Daily Weather History Graph

Daily Weather History Graph

Search for Another Location

Airport or City:

Trip Planner

Search our weather history database for the weather conditions in past years. The results will help you decide how hot, cold, wet, or windy it might be!

Date:

Astronomy

Mar. 03, 2014 Rise Set
Actual Time 6:35 AM MST 5:52 PM MST
Civil Twilight 6:06 AM MST 6:22 PM MST
Nautical Twilight 5:33 AM MST 6:55 PM MST
Astronomical Twilight 4:59 AM MST 7:29 PM MST
Moon 7:38 AM MST (3/3) 9:07 PM MST (3/3)
Length of Visible Light 12h 15m
Length of Day
11h 17m
Waxing Crescent, 8% of the Moon is Illuminated
Mar 3
Waxing Crescent
Mar 8
First Quarter
Mar 16
Full
Mar 23
Last Quarter
Mar 30
New

Hourly Weather History & Observations

Time (MST) Temp. Windchill Dew Point Humidity Pressure Visibility Wind Dir Wind Speed Gust Speed Precip Events Conditions
12:53 AM 8.1 °F -11.2 °F 1.9 °F 76% 30.05 in 10.0 mi SSE 19.6 mph 23.0 mph N/A   Clear
1:53 AM 9.0 °F -7.9 °F 3.0 °F 77% 30.04 in 10.0 mi SSE 15.0 mph - N/A   Clear
2:53 AM 12.0 °F -1.3 °F 6.1 °F 77% 30.00 in 10.0 mi ESE 10.4 mph 16.1 mph N/A   Clear
3:53 AM 21.9 °F 14.5 °F 14.0 °F 72% 29.94 in 10.0 mi SE 5.8 mph - N/A   Clear
4:53 AM 12.9 °F 3.8 °F 8.1 °F 81% 29.98 in 10.0 mi North 5.8 mph - N/A   Scattered Clouds
5:53 AM 37.0 °F 27.4 °F 24.1 °F 59% 29.90 in 10.0 mi WSW 17.3 mph - N/A   Mostly Cloudy
6:01 AM 35.6 °F 26.2 °F 24.8 °F 65% 29.77 in 10.0 mi WSW 15.0 mph - N/A   Scattered Clouds
6:53 AM 23.0 °F 18.4 °F 16.0 °F 74% 29.97 in 10.0 mi Variable 3.5 mph - N/A   Scattered Clouds
7:53 AM 18.0 °F - 12.0 °F 78% 30.03 in 10.0 mi Calm Calm - 0.01 in   Mostly Cloudy
8:53 AM 19.9 °F 14.9 °F 14.0 °F 78% 30.05 in 10.0 mi South 3.5 mph - N/A   Mostly Cloudy
9:53 AM 28.9 °F - 18.0 °F 64% 30.03 in 10.0 mi Calm Calm - N/A   Overcast
10:53 AM 34.0 °F - 24.1 °F 67% 30.02 in 10.0 mi Calm Calm - N/A   Clear
11:53 AM 42.1 °F - 28.9 °F 60% 29.97 in 10.0 mi Calm Calm - N/A   Clear
12:53 PM 44.1 °F - 30.0 °F 58% 29.96 in 10.0 mi Calm Calm - N/A   Clear
1:53 PM 44.1 °F - 28.9 °F 55% 29.95 in 10.0 mi Calm Calm - N/A   Clear
2:53 PM 46.0 °F 43.9 °F 30.9 °F 56% 29.94 in 10.0 mi ESE 4.6 mph - N/A   Clear
3:53 PM 45.0 °F 43.5 °F 32.0 °F 60% 29.90 in 10.0 mi SE 3.5 mph - N/A   Clear
4:53 PM 43.0 °F - 30.9 °F 62% 29.93 in 10.0 mi Calm Calm - N/A   Clear
5:53 PM 37.0 °F - 30.0 °F 76% 29.88 in 10.0 mi Calm Calm - N/A   Clear
6:53 PM 36.0 °F - 30.0 °F 79% 29.91 in 10.0 mi Calm Calm - N/A   Clear
7:53 PM 36.0 °F 29.6 °F 30.0 °F 79% 29.91 in 10.0 mi SSE 8.1 mph - N/A   Clear
8:53 PM 37.0 °F 27.7 °F 30.0 °F 76% 29.89 in 10.0 mi South 16.1 mph - N/A   Clear
9:53 PM 37.9 °F 28.9 °F 28.9 °F 70% 29.85 in 10.0 mi SSW 16.1 mph - N/A   Clear
10:53 PM 39.0 °F 31.4 °F 28.0 °F 65% 29.80 in 10.0 mi SW 12.7 mph - N/A   Clear
11:53 PM 39.9 °F 31.4 °F 28.0 °F 63% 29.76 in 10.0 mi SW 16.1 mph - N/A   Clear